Starlink 2686

operational
NORAD ID: 48464 Int'l Des: 2021-040 Owner: SPXS Country: US Constellation: starlink
LEOCIRCULARSTARLINK_TYPE

Über Starlink 2686

Beschreibung wird geladen...

Live-Position

3D-Globus wird geladen...

Nächste Überflüge

Höhenverlauf

Altitude vs Time

uPlot chart will show altitude changes over time

Zweizeiliger Elementsatz

1 48464U 21040AN 25259.80739388 -.00004309 00000-0 -27055-3 0 9992
2 48464 53.0534 252.2074 0001233 70.3815 289.7307 15.06404742240288
Epoch: 16. Sept. 2025 • Age: 28 hours

Aktueller Status

Höhe 561.7 km
Geschwindigkeit 7.58 km/s
Subsatellitenpunkt -41.18°S, 118.38°E
Startdatum 9. Mai 2021
Alter 4.3 years
Typ internet

Technische Details

Klassifizierung Payload
Masse 260.00 kg
Trockenmasse 248.00 kg
Gesamtmasse 260.00 kg
Länge 0.20 m
Durchmesser 2.80 m
Spannweite 9.00 m
Form Box + pan
Hersteller SPXS
Bus-Typ Starlink
Phasenstatus In Orbit
Besitzer/Staat SPXS/US

Große Konstellationen

Loading constellations...